This demonstration page uses our WeatherBlox Daily Observations layout. Learn more.

Left ArrowRight Arrow

38.83388, -104.82136

Hourly Observations for May 9, 2022

Temp ( °F °C ) Dew Point ( °F °C ) Humidity (%) Winds ( mph kmh ) Pressure ( in mb ) Visibility ( mi km ) Precip ( " mm )
12:58 am 00:58 Cloudy with Haze 63 17.2 13 -10.6 14 14 S 29 46 29.12 986 5 8 0.00 0.00
1:58 am 01:58 Cloudy with Haze 62 16.4 13 -10.3 15 15 SSE 26 43 29.06 984 4 6 0.00 0.00
2:03 am 02:03 Cloudy with Haze 61 16 14 -10 16 16 SSE 29 46 29.05 984 4 6 0.00 0.00
2:13 am 02:13 Cloudy with Haze 61 16 16 -9 17 17 SE 26 43 29.05 984 5 8 0.00 0.00
2:58 am 02:58 Cloudy with Haze 61 16 14 -9.8 16 16 SSE 26 43 29.05 984 6 10 0.00 0.00
3:58 am 03:58 Cloudy with Haze 59 15 15 -9.2 18 18 E 8 13 29.08 985 6 10 0.00 0.00
4:58 am 04:58 Cloudy with Haze 58 14.4 16 -9 19 19 SE 20 31 29.11 986 5 8 0.00 0.00
5:02 am 05:02 Cloudy with Haze 57 14 16 -9 20 20 S 16 26 29.11 986 5 8 0.00 0.00
5:32 am 05:32 Cloudy with Haze 57 14 16 -9 20 20 SE 15 24 29.09 985 6 10 0.00 0.00
5:58 am 05:58 Cloudy with Haze 57 13.8 15 -9.5 19 19 SSE 21 33 29.05 984 6 10 0.00 0.00
6:09 am 06:09 Cloudy with Haze 57 14 16 -9 20 20 ESE 20 31 29.05 984 6 10 0.00 0.00
6:14 am 06:14 Cloudy 57 14 16 -9 20 20 SE 13 20 29.05 984 7 11 0.00 0.00
6:58 am 06:58 Cloudy 57 14.1 15 -9.2 19 19 SSE 18 30 29.05 984 8 13 0.00 0.00
7:04 am 07:04 Cloudy 57 14 16 -9 20 20 SSE 22 35 29.07 985 7 11 0.00 0.00
7:10 am 07:10 Cloudy 57 14 16 -9 20 20 SE 15 24 29.08 985 7 11 0.00 0.00
7:12 am 07:12 Cloudy 57 14 16 -9 20 20 SSE 17 28 29.08 985 8 13 0.00 0.00
7:19 am 07:19 Cloudy 57 14 16 -9 20 20 SE 20 31 29.09 985 8 13 0.00 0.00
7:44 am 07:44 Cloudy 59 15 16 -9 18 18 S 13 20 29.13 987 8 13 0.00 0.00
7:53 am 07:53 Cloudy 59 15 16 -9 18 18 ESE 14 22 29.14 987 8 13 0.00 0.00
7:58 am 07:58 Cloudy 59 15.2 16 -9 18 18 SSE 12 19 29.14 987 8 13 0.00 0.00
8:01 am 08:01 Cloudy 59 15 16 -9 18 18 E 20 31 29.14 987 9 14 0.00 0.00
8:25 am 08:25 Mostly Sunny 61 16 16 -9 17 17 SE 17 28 29.16 988 10 16 0.00 0.00
8:28 am 08:28 Mostly Sunny 63 17 16 -9 16 16 SSE 17 28 29.15 987 10 16 0.00 0.00
8:39 am 08:39 Sunny 63 17 16 -9 16 16 SE 12 19 29.15 987 10 16 0.00 0.00
8:42 am 08:42 Sunny 63 17 16 -9 16 16 SE 13 20 29.15 987 10 16 0.00 0.00
8:47 am 08:47 Sunny 63 17 14 -10 15 15 SSE 20 31 29.15 987 10 16 0.00 0.00
8:48 am 08:48 Sunny 63 17 14 -10 15 15 ESE 15 24 29.16 988 10 16 0.00 0.00
8:58 am 08:58 Sunny 63 17 14 -9.8 15 15 ESE 12 19 29.17 988 10 16 0.00 0.00
9:19 am 09:19 Sunny 64 18 14 -10 14 14 S 25 41 29.18 988 10 16 0.00 0.00
9:32 am 09:32 Sunny 64 18 14 -10 14 14 S 18 30 29.19 989 10 16 0.00 0.00
9:34 am 09:34 Sunny 64 18 14 -10 14 14 SE 15 24 29.19 989 10 16 0.00 0.00
9:42 am 09:42 Sunny 64 18 14 -10 14 14 SE 13 20 29.20 989 10 16 0.00 0.00
9:49 am 09:49 Sunny 66 19 16 -9 14 14 E 15 24 29.21 989 10 16 0.00 0.00
9:58 am 09:58 Sunny 65 18.3 13 -10.6 13 13 ENE 9 15 29.22 990 10 16 0.00 0.00
10:40 am 10:40 Sunny 68 20 14 -10 12 12 SE 16 26 29.22 989 9 14 0.00 0.00
10:58 am 10:58 Sunny 69 20.4 14 -10 12 12 SE 7 11 29.24 990 10 16 0.00 0.00
11:13 am 11:13 Sunny 68 20 12 -11 11 11 S 22 35 29.25 991 10 16 0.00 0.00
11:58 am 11:58 Sunny 70 21.2 11 -11.7 10 10 SSE 25 41 29.24 990 10 16 0.00 0.00
12:09 pm 12:09 Sunny 70 21 12 -11 11 11 ESE 21 33 29.25 990 10 16 0.00 0.00
12:15 pm 12:15 Sunny 70 21 10 -12 10 10 S 30 48 29.27 991 10 16 0.00 0.00
12:20 pm 12:20 Sunny 70 21 10 -12 10 10 ESE 15 24 29.27 991 10 16 0.00 0.00
12:27 pm 12:27 Sunny 72 22 12 -11 10 10 S 21 33 29.27 991 10 16 0.00 0.00
12:58 pm 12:58 Sunny 72 22 12 -11 10 10 SE 15 24 29.29 992 10 16 0.00 0.00
1:06 pm 13:06 Sunny 72 22 12 -11 10 10 ESE 12 19 29.30 992 10 16 0.00 0.00
1:10 pm 13:10 Sunny 73 23 14 -10 10 10 SSE 22 35 29.29 992 10 16 0.00 0.00
1:30 pm 13:30 Sunny 73 23 10 -12 9 9 ESE 25 41 29.30 992 10 16 0.00 0.00
1:36 pm 13:36 Sunny 73 23 10 -12 9 9 SSE 22 35 29.31 993 10 16 0.00 0.00
1:43 pm 13:43 Sunny 73 23 12 -11 9 9 S 20 31 29.33 993 10 16 0.00 0.00
1:48 pm 13:48 Sunny 73 23 10 -12 9 9 SE 18 30 29.32 993 10 16 0.00 0.00
1:58 pm 13:58 Sunny 74 23.2 11 -11.5 9 9 ESE 23 37 29.34 994 10 16 0.00 0.00
2:07 pm 14:07 Sunny 75 24 12 -11 9 9 SSE 18 30 29.34 994 10 16 0.00 0.00
2:30 pm 14:30 Sunny 73 23 12 -11 9 9 SE 16 26 29.33 993 10 16 0.00 0.00
2:57 pm 14:57 Sunny 75 24 12 -11 9 9 ESE 14 22 29.34 994 10 16 0.00 0.00
2:58 pm 14:58 Sunny 75 23.9 12 -10.9 9 9 ESE 12 19 29.34 994 10 16 0.00 0.00
3:02 pm 15:02 Sunny 75 24 12 -11 9 9 SSE 18 30 29.34 994 10 16 0.00 0.00
3:58 pm 15:58 Sunny 75 23.8 12 -11 9 9 SSE 23 37 29.34 994 10 16 0.00 0.00
4:26 pm 16:26 Sunny 75 24 12 -11 9 9 S 18 30 29.36 994 10 16 0.00 0.00
4:58 pm 16:58 Sunny 74 23.5 14 -9.9 10 10 SSE 16 26 29.36 994 10 16 0.00 0.00
5:21 pm 17:21 Sunny 73 23 14 -10 10 10 SE 13 20 29.36 994 10 16 0.00 0.00
5:51 pm 17:51 Sunny 72 22 14 -10 11 11 SE 16 26 29.36 994 10 16 0.00 0.00
5:58 pm 17:58 Sunny 71 21.7 14 -10.1 11 11 S 20 31 29.36 994 10 16 0.00 0.00
6:58 pm 18:58 Sunny 69 20.8 13 -10.8 11 11 SSE 10 17 29.38 995 10 16 0.00 0.00
7:58 pm 19:58 Sunny 68 19.8 13 -10.5 12 12 SSE 10 17 29.41 996 10 16 0.00 0.00
8:58 pm 20:58 Clear 65 18.4 20 -6.4 18 18 NNW 8 13 29.42 996 10 16 0.00 0.00
9:58 pm 21:58 Clear 60 15.4 35 1.9 40 40 NW 14 22 29.44 997 10 16 0.00 0.00
10:58 pm 22:58 undefined 56 13.4 36 2.3 47 47 NNW 16 26 29.47 998 10 16 0.00 0.00

Powered by AerisWeather